FW5881 Weather Reports


time (UTC)temp
C
wind
direction
speed
KPH
gust
KPH
rain 1hr
cm
rain 24hr
cm
rain mn
cm
humidity
%
barometer
mb
20260508151850 11 223 3.2 6.4 0.00 0.00 0.00 58 1012.2
20260508150850 11 199 4.8 8.0 0.00 0.00 0.00 56 1012.2
20260508145849 11 196 3.2 8.0 0.00 0.00 0.00 57 1012.1
20260508144849 10 145 3.2 4.8 0.00 0.00 0.00 58 1011.8
20260508143842 10 200 4.8 11.3 0.00 0.00 0.00 57 1011.5
20260508142843 9 121 8.0 16.1 0.00 0.00 0.00 57 1011.2
20260508141841 8 118 8.0 9.7 0.00 0.00 0.00 60 1010.7
20260508140842 8 139 6.4 11.3 0.00 0.00 0.00 62 1009.8
20260508135841 7 107 6.4 11.3 0.00 0.00 0.00 65 1009.2
20260508134839 6 180 6.4 14.5 0.00 0.00 0.00 68 1008.5
20260508133841 6 118 6.4 9.7 0.00 0.00 0.00 68 1008.2
20260508132841 5 180 8.0 16.1 0.00 0.00 0.00 69 1007.6
20260508131835 6 180 8.0 16.1 0.00 0.00 0.00 68 1008.1
20260508125829 5 180 3.2 14.5 0.00 0.00 0.00 71 1007.1
20260508124831 4 180 0.0 3.2 0.00 0.00 0.00 73 1006.4
20260508123832 4 180 1.6 3.2 0.00 0.00 0.00 72 1006.4
20260508122829 4 180 1.6 9.7 0.00 0.00 0.00 73 1006.3
20260508121819 3 180 0.0 1.6 0.00 0.00 0.00 73 1005.9
20260508120748 3 180 1.6 4.8 0.00 0.00 0.00 74 1005.9
20260508115721 3 180 1.6 4.8 0.00 0.00 0.00 73 1005.8
20260508114722 4 180 1.6 6.4 0.00 0.00 0.00 71 1005.8
20260508113723 5 180 3.2 8.0 0.00 0.00 0.00 70 1006.5
20260508111723 5 180 6.4 14.5 0.00 0.00 0.00 69 1006.9
20260508110719 5 180 6.4 17.7 0.00 0.00 0.00 70 1006.8
20260508105658 5 180 9.7 22.5 0.00 0.00 0.00 69 1006.8
20260508104659 5 180 11.3 20.9 0.00 0.00 0.00 68 1007.0
20260508103659 5 180 9.7 20.9 0.00 0.00 0.00 69 1006.9
20260508102649 5 180 8.0 17.7 0.00 0.00 0.00 70 1006.7
20260508101644 5 180 9.7 19.3 0.00 0.00 0.00 70 1006.8
20260508100638 5 180 9.7 19.3 0.00 0.00 0.00 69 1007.0
20260508095638 5 180 12.9 20.9 0.00 0.00 0.00 69 1007.0
20260508094635 5 180 8.0 19.3 0.00 0.00 0.00 70 1006.8
20260508093633 5 180 6.4 14.5 0.00 0.00 0.00 69 1006.8
20260508092633 5 180 3.2 11.3 0.00 0.00 0.00 69 1006.8
20260508091634 5 180 6.4 9.7 0.00 0.00 0.00 69 1006.9
20260508090636 6 180 6.4 12.9 0.00 0.00 0.00 67 1007.3
20260508085626 6 180 6.4 11.3 0.00 0.00 0.00 67 1007.4
20260508084617 6 180 8.0 17.7 0.00 0.00 0.00 66 1007.8
20260508082615 6 180 8.0 14.5 0.00 0.00 0.00 64 1008.1
20260508080608 6 180 11.3 22.5 0.00 0.00 0.00 65 1008.1
20260508075605 6 180 11.3 20.9 0.00 0.00 0.00 65 1008.1
20260508073604 6 180 9.7 17.7 0.00 0.00 0.00 65 1008.2
20260508071603 7 180 9.7 20.9 0.00 0.00 0.00 63 1008.6
20260508070601 7 180 11.3 19.3 0.00 0.00 0.00 62 1008.8
20260508065559 7 180 9.7 19.3 0.00 0.00 0.00 61 1009.2
20260508064557 7 180 3.2 11.3 0.00 0.00 0.00 61 1009.2
20260508063556 8 180 1.6 14.5 0.00 0.00 0.00 58 1009.6
20260508060552 9 180 9.7 19.3 0.00 0.00 0.00 57 1010.2
20260508055544 9 180 8.0 17.7 0.00 0.00 0.00 56 1010.3
20260508054544 9 180 1.6 8.0 0.00 0.00 0.00 54 1010.4
20260508053544 9 180 1.6 4.8 0.00 0.00 0.00 54 1010.3
20260508052540 10 180 3.2 11.3 0.00 0.00 0.00 54 1010.7
20260508051540 10 180 6.4 16.1 0.00 0.00 0.00 52 1011.2
20260508050540 10 180 6.4 16.1 0.00 0.00 0.00 51 1011.2
20260508045537 10 180 4.8 9.7 0.00 0.00 0.00 52 1010.5
20260508044534 9 180 4.8 8.0 0.00 0.00 0.00 55 1010.1
20260508043533 10 180 3.2 8.0 0.00 0.00 0.00 54 1010.4
20260508042530 11 180 3.2 8.0 0.00 0.00 0.00 51 1011.6
20260508041528 11 180 3.2 6.4 0.00 0.00 0.00 48 1011.8
20260508040527 11 180 4.8 9.7 0.00 0.00 0.00 47 1012.0
20260508035514 10 180 3.2 8.0 0.00 0.00 0.00 51 1011.0
20260508034502 10 180 4.8 8.0 0.00 0.00 0.00 53 1010.8
20260508033458 10 180 3.2 8.0 0.00 0.00 0.00 50 1011.0
20260508032458 10 180 3.2 6.4 0.00 0.00 0.00 52 1011.2
20260508031457 11 180 1.6 6.4 0.00 0.00 0.00 51 1011.9
20260508030456 12 52 3.2 6.4 0.00 0.00 0.00 47 1012.0
20260508025455 12 40 6.4 8.0 0.00 0.00 0.00 47 1012.2
20260508023457 14 12 1.6 4.8 0.00 0.00 0.00 43 1013.5
20260508022454 15 333 3.2 8.0 0.00 0.00 0.00 40 1014.2
20260508021455 15 321 8.0 16.1 0.00 0.00 0.00 38 1014.5
20260508020450 16 303 8.0 14.5 0.00 0.00 0.00 37 1014.7
20260508015449 16 328 8.0 16.1 0.00 0.00 0.00 36 1015.0
20260508013448 17 326 11.3 19.3 0.00 0.00 0.00 35 1015.6
20260508012445 17 306 8.0 16.1 0.00 0.00 0.00 36 1015.9
20260508011444 17 315 9.7 19.3 0.00 0.00 0.00 34 1016.0
20260508010443 17 308 12.9 19.3 0.00 0.00 0.00 35 1016.0
20260508005443 17 276 12.9 20.9 0.00 0.00 0.00 34 1016.0
20260508004443 17 280 8.0 22.5 0.00 0.00 0.00 35 1016.4
20260508003439 17 333 4.8 12.9 0.00 0.00 0.00 35 1016.5
20260508002440 17 341 4.8 9.7 0.00 0.00 0.00 40 1016.0
20260508001435 16 318 6.4 16.1 0.00 0.00 0.00 39 1015.6
20260508000434 16 343 11.3 17.7 0.00 0.00 0.00 39 1015.6
20260507235434 16 325 9.7 17.7 0.00 0.00 0.00 39 1015.5
20260507233429 16 305 16.1 25.7 0.00 0.00 0.00 38 1016.0
20260507232428 16 333 20.9 29.0 0.00 0.00 0.00 38 1016.1
20260507231427 16 299 19.3 33.8 0.00 0.00 0.00 40 1016.5
20260507230424 16 287 20.9 33.8 0.00 0.00 0.00 38 1016.7
20260507225425 16 314 14.5 30.6 0.00 0.00 0.00 38 1017.0
20260507224422 17 304 11.3 22.5 0.00 0.00 0.00 36 1017.1
20260507223423 17 315 19.3 27.4 0.00 0.00 0.00 37 1017.2
20260507221417 17 287 20.9 32.2 0.00 0.00 0.00 35 1018.1
20260507220417 18 300 20.9 30.6 0.00 0.00 0.00 39 1018.2
20260507215414 17 328 24.1 41.8 0.00 0.00 0.00 36 1017.8
20260507214414 17 314 19.3 32.2 0.00 0.00 0.00 37 1018.2
20260507213416 18 295 12.9 20.9 0.00 0.00 0.00 40 1018.7
20260507211416 16 285 20.9 37.0 0.00 0.00 0.00 39 1018.1
20260507210415 16 313 14.5 29.0 0.00 0.00 0.00 40 1017.7
20260507205410 16 308 16.1 29.0 0.00 0.00 0.00 38 1017.7
20260507204408 16 317 19.3 29.0 0.00 0.00 0.00 38 1018.3
20260507203410 17 291 19.3 30.6 0.00 0.00 0.00 37 1018.8
20260507202408 16 301 14.5 29.0 0.00 0.00 0.00 38 1018.3
20260507201409 15 312 14.5 24.1 0.00 0.00 0.00 38 1017.7
20260507200408 16 308 11.3 24.1 0.00 0.00 0.00 38 1017.9
20260507195408 15 301 16.1 24.1 0.00 0.00 0.00 37 1017.7
20260507194405 15 326 16.1 24.1 0.00 0.00 0.00 37 1017.9
20260507193405 15 324 11.3 22.5 0.00 0.00 0.00 37 1018.3
20260507191402 15 325 17.7 30.6 0.00 0.00 0.00 36 1018.3
20260507190400 16 304 16.1 24.1 0.00 0.00 0.00 36 1018.8
20260507185358 16 290 8.0 22.5 0.00 0.00 0.00 37 1019.3
20260507184359 16 310 6.4 17.7 0.00 0.00 0.00 35 1019.5
20260507183358 17 160 3.2 8.0 0.00 0.00 0.00 34 1020.1
20260507182401 17 247 4.8 9.7 0.00 0.00 0.00 33 1020.0
20260507181357 17 149 6.4 11.3 0.00 0.00 0.00 34 1020.2
20260507175356 16 175 9.7 17.7 0.00 0.00 0.00 36 1020.0
20260507174350 16 185 9.7 17.7 0.00 0.00 0.00 36 1019.9
20260507173347 16 139 11.3 20.9 0.00 0.00 0.00 36 1019.8
20260507172346 15 191 11.3 20.9 0.00 0.00 0.00 39 1019.4
20260507171344 15 213 11.3 22.5 0.00 0.00 0.00 38 1019.4
20260507170343 16 189 8.0 17.7 0.00 0.00 0.00 39 1020.0
20260507165341 15 175 8.0 17.7 0.00 0.00 0.00 37 1019.5
20260507164341 13 175 8.0 17.7 0.00 0.00 0.00 41 1018.9
20260507163339 13 175 8.0 16.1 0.00 0.00 0.00 42 1019.2
20260507162338 13 208 6.4 17.7 0.00 0.00 0.00 42 1019.2
20260507161335 14 170 6.4 14.5 0.00 0.00 0.00 38 1019.3
20260507160335 13 196 6.4 14.5 0.00 0.00 0.00 39 1019.0
20260507155333 13 175 3.2 11.3 0.00 0.00 0.00 41 1018.9
20260507154334 12 141 3.2 8.0 0.00 0.00 0.00 43 1018.8
20260507153330 11 115 1.6 4.8 0.00 0.00 0.00 46 1018.4
20260507152330 10 214 1.6 4.8 0.00 0.00 0.00 53 1017.6